User: anonymous   Login
Location: Newark
(13.8625°N, 100.5144°E)
Time: 01:45:04
(UTC+00:00)
Language:

NOAA 18 - Orbit

View from above orbital plane
View from above orbital plane
View from above satellite
View from above satellite

Ground track
Ground track

The orbit data is extracted from the following two-line orbital elements,

1 28654U 05018A   21206.69411424  .00000110  00000-0  83673-4 0  9994
2 28654  98.9920 271.7069 0014563 170.2500 189.8957 14.12624806833937
Epoch (UTC): 25 July 2021 16:39:31
Eccentricity: 0.0014563
inclination: 98.9920°
perigee height: 840 km
apogee height: 861 km
right ascension of ascending node: 271.7069°
argument of perigee: 170.2500°
revolutions per day: 14.12624806
mean anomaly at epoch: 189.8957°
orbit number at epoch: 83393

The dashed part of the orbit path shows where the satellite is in the earth's shadow,  

DLR